TimeCDT,TemperatureF,Dew PointF,Humidity,Sea Level PressureIn,VisibilityMPH,Wind Direction,Wind SpeedMPH,Gust SpeedMPH,PrecipitationIn,Events,Conditions,WindDirDegrees,DateUTC
12:15 AM,69.8,62.6,78,30.01,10.0,Calm,Calm,-,N/A,,Clear,0,2013-08-30 05:15:00
12:35 AM,69.8,62.6,78,30.00,10.0,Calm,Calm,-,N/A,,Clear,0,2013-08-30 05:35:00
12:55 AM,68.0,62.6,83,29.99,7.0,Calm,Calm,-,N/A,,Clear,0,2013-08-30 05:55:00
1:15 AM,68.0,62.6,83,29.99,10.0,South,3.5,-,N/A,,Clear,170,2013-08-30 06:15:00
1:35 AM,68.0,62.6,83,29.99,10.0,Calm,Calm,-,N/A,,Clear,0,2013-08-30 06:35:00
1:55 AM,68.0,62.6,83,29.99,10.0,Calm,Calm,-,N/A,,Clear,0,2013-08-30 06:55:00
2:15 AM,66.2,62.6,88,29.98,7.0,Calm,Calm,-,N/A,,Clear,0,2013-08-30 07:15:00
2:35 AM,66.2,62.6,88,29.97,7.0,Calm,Calm,-,N/A,,Clear,0,2013-08-30 07:35:00
2:55 AM,68.0,62.6,83,29.96,10.0,SSW,3.5,-,N/A,,Clear,200,2013-08-30 07:55:00
3:15 AM,68.0,62.6,83,29.95,10.0,South,4.6,-,N/A,,Clear,190,2013-08-30 08:15:00
3:35 AM,68.0,62.6,83,29.94,10.0,South,5.8,-,N/A,,Scattered Clouds,190,2013-08-30 08:35:00
3:55 AM,68.0,62.6,83,29.93,10.0,SSW,5.8,-,N/A,,Scattered Clouds,210,2013-08-30 08:55:00
4:15 AM,68.0,62.6,83,29.92,10.0,SW,4.6,-,N/A,,Clear,220,2013-08-30 09:15:00
4:35 AM,68.0,60.8,78,29.92,10.0,SSW,3.5,-,N/A,,Clear,210,2013-08-30 09:35:00
4:55 AM,68.0,60.8,78,29.92,10.0,SSW,4.6,-,N/A,,Clear,210,2013-08-30 09:55:00
5:15 AM,68.0,60.8,78,29.92,10.0,SSW,3.5,-,N/A,,Clear,210,2013-08-30 10:15:00
5:35 AM,68.0,60.8,78,29.92,10.0,Calm,Calm,-,N/A,,Clear,0,2013-08-30 10:35:00
5:55 AM,68.0,62.6,83,29.92,10.0,Calm,Calm,-,N/A,,Clear,0,2013-08-30 10:55:00
6:15 AM,68.0,62.6,83,29.92,10.0,Calm,Calm,-,N/A,,Scattered Clouds,0,2013-08-30 11:15:00
6:35 AM,68.0,62.6,83,29.91,7.0,SSW,4.6,-,N/A,,Mostly Cloudy,210,2013-08-30 11:35:00
6:45 AM,69.8,64.4,83,29.91,7.0,SSW,4.6,-,N/A,,Scattered Clouds,210,2013-08-30 11:45:00
6:55 AM,69.8,62.6,78,29.91,7.0,SW,4.6,-,N/A,,Scattered Clouds,220,2013-08-30 11:55:00
7:45 AM,73.4,66.2,78,29.91,10.0,SW,8.1,-,N/A,,Scattered Clouds,220,2013-08-30 12:45:00
8:45 AM,78.8,66.2,65,29.88,10.0,SW,12.7,-,N/A,,Clear,230,2013-08-30 13:45:00
9:45 AM,80.6,68.0,65,29.87,10.0,SW,13.8,19.6,N/A,,Clear,220,2013-08-30 14:45:00
10:45 AM,84.2,69.8,62,29.86,10.0,SW,9.2,-,N/A,,Clear,230,2013-08-30 15:45:00
11:45 AM,89.6,69.8,52,29.84,10.0,SW,12.7,-,N/A,,Clear,230,2013-08-30 16:45:00
12:45 PM,91.4,69.8,49,29.82,10.0,WSW,15.0,23.0,N/A,,Clear,240,2013-08-30 17:45:00
1:45 PM,93.2,64.4,38,29.80,10.0,WSW,15.0,-,N/A,,Clear,250,2013-08-30 18:45:00
2:45 PM,89.6,69.8,52,29.80,10.0,West,11.5,-,N/A,,Scattered Clouds,270,2013-08-30 19:45:00
3:45 PM,73.4,60.8,65,29.79,10.0,WSW,5.8,-,N/A,Rain,Light Rain,250,2013-08-30 20:45:00
4:45 PM,73.4,62.6,69,29.82,10.0,North,5.8,-,N/A,,Clear,10,2013-08-30 21:45:00
5:45 PM,77.0,60.8,57,29.81,10.0,Calm,Calm,-,N/A,,Clear,0,2013-08-30 22:45:00
6:45 PM,75.2,64.4,69,29.83,10.0,NNE,12.7,19.6,N/A,,Overcast,30,2013-08-30 23:45:00
7:45 PM,73.4,64.4,73,29.88,10.0,NE,9.2,18.4,N/A,,Overcast,40,2013-08-31 00:45:00
8:45 PM,71.6,64.4,78,29.89,10.0,NE,12.7,-,N/A,,Overcast,40,2013-08-31 01:45:00
9:15 PM,69.8,62.6,78,29.89,10.0,NNE,12.7,-,N/A,,Overcast,30,2013-08-31 02:15:00
9:35 PM,69.8,60.8,73,29.90,10.0,NNE,13.8,18.4,N/A,,Overcast,30,2013-08-31 02:35:00
9:55 PM,68.0,60.8,78,29.90,10.0,NNE,13.8,20.7,N/A,,Overcast,30,2013-08-31 02:55:00
10:15 PM,68.0,59.0,73,29.89,10.0,NNE,15.0,21.9,N/A,,Overcast,20,2013-08-31 03:15:00
10:35 PM,68.0,59.0,73,29.89,10.0,NNE,8.1,-,N/A,,Scattered Clouds,20,2013-08-31 03:35:00
10:55 PM,68.0,59.0,73,29.89,10.0,NNE,9.2,-,N/A,,Scattered Clouds,20,2013-08-31 03:55:00
11:15 PM,68.0,59.0,73,29.89,10.0,North,6.9,-,N/A,,Mostly Cloudy,10,2013-08-31 04:15:00
11:35 PM,68.0,59.0,73,29.89,10.0,North,5.8,-,N/A,,Mostly Cloudy,10,2013-08-31 04:35:00
11:55 PM,68.0,59.0,73,29.88,10.0,NNE,9.2,-,N/A,,Mostly Cloudy,30,2013-08-31 04:55:00